User: anonymous
Location: Unspecified
(0.0000°N, 0.0000°E)
Time: 08:19:23
(UTC+02:00)
Language:

Meteor PRIRODA - Orbit

View from above orbital plane
View from above orbital plane
View from above satellite
View from above satellite

Ground track
Ground track

The orbit data is extracted from the following two-line orbital elements,

1 12585U 81065A   14265.04628095  .00003134  00000-0  17218-3 0  9042
2 12585 097.3254 252.8818 0014742 290.6631 109.8431 15.14726704810655
Epoch (UTC): 22 September 2014 01:06:38
Eccentricity: 0.0014742
inclination: 97.3254°
perigee height: 511 km
apogee height: 532 km
right ascension of ascending node: 252.8818°
argument of perigee: 290.6631°
revolutions per day: 15.14726704
mean anomaly at epoch: 109.8431°
orbit number at epoch: 81065

The dashed part of the orbit path shows where the satellite is in the earth's shadow,  

DLR